sat.trackr.live / text

‹ back to catalog

STARLINK-36616

NORAD 67672 · 2026-022AA

PAYLOAD ACTIVE UNKNOWN

§ Identity

Operator
Country
US
Launch date
2026-02-02
Launch site
AFWTR
Launch vehicle
Mass (kg)
RCS (m²)

Purposes: comms

External: N2YO · Heavens-Above · Gunter

§ Orbital elements

Epoch: 2026-09-19T19:19:30.766944Z

Period
93.91 min
Inclination
97.2849°
Eccentricity
0.0001863
Mean motion
15.33457815 rev/d
Perigee alt
464.2 km
Apogee alt
466.8 km
Semi-major
6,843.6 km
B*
6.5404e-4
RAAN
294.4246°
Arg perigee
98.5948°
Mean anomaly
261.5506°
Rev number
3,532

§ Raw data

STARLINK-366161 67672U 26022AA  26262.80521721  .00021108  00000+0  65404-3 0  99972 67672  97.2849 294.4246 0001863  98.5948 261.5506 15.33457815 35321

JSON: /api/v1/satellites/67672 · /tle

For live sub-satellite position, see the globe view (requires WebGL).

§ Visibility from observer

Set your observer location to see the next 7 days of passes ≥ 10°. The values pass through the URL so the page stays shareable.

No JS? Fill the form by hand. The geolocation button needs JavaScript.